• In Belarus
  • List of Countries
  • For 7 days
  • Water Temperature
  • Weather Map
  • Weather Widgets
  • user-avatar
    Login

    Hourly Weather Smolan

    Today, 4 June, Thursday

    Time Temperature Precipitation Wind Pressure Humidity
    00:00 +6°C° 0 mm 1 mps 649 mmHg 91%
    01:00 +6°C° 0 mm 1 mps 649 mmHg 91%
    02:00 +5°C° 0 mm 1 mps 649 mmHg 91%
    03:00 +5°C° 0 mm 1 mps 649 mmHg 90%
    04:00 +5°C° 0 mm 1 mps 649 mmHg 89%
    05:00 +5°C° 0 mm 1 mps 649 mmHg 89%
    06:00 +8°C° 0 mm 1 mps 650 mmHg 83%
    07:00 +10°C° 0 mm 1 mps 651 mmHg 77%
    08:00 +13°C° 0 mm 1 mps 652 mmHg 71%
    09:00 +14°C° 0 mm 2 mps 653 mmHg 63%
    10:00 +16°C° 0 mm 2 mps 653 mmHg 56%
    11:00 +18°C° 0 mm 3 mps 654 mmHg 48%
    12:00 +17°C° 0.2 mm 3 mps 654 mmHg 52%
    13:00 +17°C° 0.2 mm 3 mps 654 mmHg 56%
    14:00 +17°C° 0.2 mm 4 mps 654 mmHg 60%
    15:00 +17°C° 0.2 mm 4 mps 653 mmHg 63%
    16:00 +17°C° 0.2 mm 4 mps 653 mmHg 66%
    17:00 +16°C° 0.2 mm 3 mps 653 mmHg 68%
    18:00 +13°C° 0 mm 3 mps 653 mmHg 76%
    19:00 +13°C° 0 mm 2 mps 652 mmHg 85%
    20:00 +10°C° 0 mm 2 mps 651 mmHg 93%
    21:00 +9°C° 0 mm 2 mps 652 mmHg 93%
    22:00 +10°C° 0 mm 1 mps 652 mmHg 93%
    23:00 +9°C° 0 mm 1 mps 652 mmHg 93%

    Tomorrow, 5 June, Friday

    Time Temperature Precipitation Wind Pressure Humidity
    00:00 +9°C° 0 mm 1 mps 652 mmHg 93%
    01:00 +9°C° 0 mm 1 mps 652 mmHg 93%
    02:00 +9°C° 0 mm 1 mps 651 mmHg 92%
    03:00 +8°C° 0 mm 1 mps 651 mmHg 91%
    04:00 +8°C° 0 mm 1 mps 651 mmHg 91%
    05:00 +8°C° 0 mm 1 mps 651 mmHg 90%
    06:00 +9°C° 0 mm 2 mps 652 mmHg 84%
    07:00 +12°C° 0 mm 2 mps 653 mmHg 78%
    08:00 +14°C° 0 mm 3 mps 653 mmHg 72%
    09:00 +16°C° 0 mm 3 mps 654 mmHg 68%
    10:00 +17°C° 0 mm 4 mps 654 mmHg 63%
    11:00 +18°C° 0 mm 4 mps 654 mmHg 58%
    12:00 +18°C° 0 mm 4 mps 654 mmHg 57%
    13:00 +19°C° 0 mm 4 mps 654 mmHg 56%
    14:00 +19°C° 0 mm 4 mps 654 mmHg 55%
    15:00 +18°C° 0 mm 4 mps 653 mmHg 58%
    16:00 +18°C° 0 mm 4 mps 653 mmHg 61%
    17:00 +17°C° 0 mm 4 mps 652 mmHg 64%
    18:00 +14°C° 0 mm 3 mps 651 mmHg 73%
    19:00 +12°C° 0 mm 3 mps 651 mmHg 82%
    20:00 +10°C° 0 mm 2 mps 650 mmHg 92%
    21:00 +10°C° 0 mm 2 mps 651 mmHg 91%
    22:00 +9°C° 0 mm 2 mps 651 mmHg 91%
    23:00 +10°C° 0 mm 1 mps 651 mmHg 90%

    Day after tomorrow, 6 June, Saturday

    Time Temperature Precipitation Wind Pressure Humidity
    00:00 +10°C° 0 mm 1 mps 651 mmHg 87%
    01:00 +10°C° 0 mm 1 mps 651 mmHg 85%
    02:00 +10°C° 0 mm 1 mps 651 mmHg 82%
    03:00 +10°C° 0 mm 1 mps 651 mmHg 80%
    04:00 +9°C° 0 mm 1 mps 651 mmHg 78%
    05:00 +9°C° 0 mm 1 mps 650 mmHg 76%
    06:00 +11°C° 0.1 mm 1 mps 651 mmHg 74%
    07:00 +12°C° 0.1 mm 1 mps 652 mmHg 73%
    08:00 +14°C° 0.1 mm 1 mps 653 mmHg 72%
    09:00 +15°C° 0.1 mm 2 mps 653 mmHg 67%
    10:00 +15°C° 0.1 mm 2 mps 653 mmHg 63%
    11:00 +16°C° 0.1 mm 3 mps 653 mmHg 58%
    12:00 +16°C° 0.1 mm 3 mps 653 mmHg 61%
    13:00 +14°C° 0.1 mm 3 mps 653 mmHg 64%
    14:00 +14°C° 0.1 mm 3 mps 653 mmHg 68%
    15:00 +15°C° 0.1 mm 2 mps 652 mmHg 66%
    16:00 +15°C° 0.1 mm 2 mps 652 mmHg 65%
    17:00 +15°C° 0.1 mm 2 mps 652 mmHg 64%
    18:00 +13°C° 0 mm 2 mps 651 mmHg 72%
    19:00 +12°C° 0 mm 1 mps 651 mmHg 80%
    20:00 +10°C° 0 mm 1 mps 650 mmHg 89%
    21:00 +9°C° 0 mm 1 mps 650 mmHg 89%
    22:00 +9°C° 0 mm 1 mps 651 mmHg 90%
    23:00 +9°C° 0 mm 1 mps 651 mmHg 91%

    7 June, Sunday

    Time Temperature Precipitation Wind Pressure Humidity
    00:00 +8°C° 0 mm 1 mps 651 mmHg 90%
    01:00 +8°C° 0 mm 1 mps 651 mmHg 89%
    02:00 +8°C° 0 mm 1 mps 650 mmHg 88%
    03:00 +8°C° 0 mm 1 mps 651 mmHg 86%
    04:00 +8°C° 0 mm 1 mps 651 mmHg 85%
    05:00 +8°C° 0 mm 1 mps 651 mmHg 84%
    06:00 +11°C° 0 mm 1 mps 652 mmHg 76%
    07:00 +13°C° 0 mm 0 mps 653 mmHg 68%
    08:00 +16°C° 0 mm 0 mps 654 mmHg 59%
    09:00 +19°C° 0 mm 1 mps 655 mmHg 56%
    10:00 +20°C° 0 mm 1 mps 655 mmHg 53%
    11:00 +21°C° 0 mm 2 mps 656 mmHg 50%
    12:00 +20°C° 0 mm 2 mps 655 mmHg 54%
    13:00 +20°C° 0 mm 2 mps 655 mmHg 58%
    14:00 +20°C° 0 mm 3 mps 655 mmHg 61%
    15:00 +19°C° 0.4 mm 2 mps 654 mmHg 65%
    16:00 +19°C° 0.4 mm 2 mps 654 mmHg 69%
    17:00 +19°C° 0.4 mm 2 mps 654 mmHg 72%
    18:00 +18°C° 0.4 mm 1 mps 653 mmHg 79%
    19:00 +15°C° 0.4 mm 1 mps 653 mmHg 85%
    20:00 +13°C° 0.4 mm 1 mps 652 mmHg 92%
    21:00 +13°C° 0 mm 1 mps 653 mmHg 92%
    22:00 +13°C° 0 mm 1 mps 653 mmHg 92%
    23:00 +12°C° 0 mm 1 mps 653 mmHg 92%

    8 June, Monday

    Time Temperature Precipitation Wind Pressure Humidity
    00:00 +12°C° 0 mm 1 mps 653 mmHg 91%
    01:00 +12°C° 0 mm 1 mps 652 mmHg 91%
    02:00 +12°C° 0 mm 1 mps 652 mmHg 90%
    03:00 +12°C° 0 mm 1 mps 652 mmHg 90%
    04:00 +11°C° 0 mm 1 mps 652 mmHg 90%
    05:00 +11°C° 0 mm 1 mps 652 mmHg 89%
    06:00 +14°C° 0 mm 1 mps 653 mmHg 83%
    07:00 +16°C° 0 mm 1 mps 654 mmHg 77%
    08:00 +17°C° 0 mm 0 mps 654 mmHg 71%
    09:00 +20°C° 0 mm 1 mps 655 mmHg 66%
    10:00 +21°C° 0 mm 1 mps 655 mmHg 62%
    11:00 +21°C° 0 mm 2 mps 655 mmHg 57%
    12:00 +21°C° 0.3 mm 2 mps 655 mmHg 62%
    13:00 +21°C° 0.3 mm 2 mps 655 mmHg 66%
    14:00 +20°C° 0.3 mm 2 mps 654 mmHg 70%
    15:00 +20°C° 0.5 mm 2 mps 654 mmHg 72%
    16:00 +21°C° 0.5 mm 1 mps 654 mmHg 74%
    17:00 +20°C° 0.5 mm 1 mps 653 mmHg 76%
    18:00 +19°C° 0.5 mm 1 mps 653 mmHg 81%
    19:00 +16°C° 0.5 mm 1 mps 652 mmHg 86%
    20:00 +13°C° 0.5 mm 0 mps 652 mmHg 92%
    21:00 +14°C° 0.3 mm 1 mps 652 mmHg 91%
    22:00 +14°C° 0.3 mm 1 mps 652 mmHg 91%
    23:00 +13°C° 0.3 mm 1 mps 652 mmHg 91%

    9 June, Tuesday

    Time Temperature Precipitation Wind Pressure Humidity
    00:00 +13°C° 0.2 mm 1 mps 652 mmHg 91%
    01:00 +12°C° 0.2 mm 1 mps 652 mmHg 91%
    02:00 +12°C° 0.2 mm 1 mps 651 mmHg 91%
    03:00 +12°C° 0.1 mm 1 mps 651 mmHg 90%
    04:00 +11°C° 0.1 mm 1 mps 651 mmHg 90%
    05:00 +11°C° 0.1 mm 1 mps 651 mmHg 89%
    06:00 +14°C° 0 mm 1 mps 652 mmHg 83%
    07:00 +15°C° 0 mm 0 mps 653 mmHg 77%
    08:00 +17°C° 0 mm 0 mps 654 mmHg 70%
    09:00 +20°C° 0.8 mm 1 mps 654 mmHg 68%
    10:00 +21°C° 0.8 mm 1 mps 654 mmHg 67%
    11:00 +21°C° 0.8 mm 1 mps 654 mmHg 65%
    12:00 +21°C° 1.4 mm 1 mps 654 mmHg 67%
    13:00 +21°C° 1.4 mm 1 mps 654 mmHg 69%
    14:00 +21°C° 1.4 mm 1 mps 654 mmHg 71%
    15:00 +21°C° 1.5 mm 1 mps 653 mmHg 73%
    16:00 +20°C° 1.5 mm 1 mps 653 mmHg 75%
    17:00 +20°C° 1.5 mm 1 mps 653 mmHg 78%
    18:00 +18°C° 0.4 mm 1 mps 652 mmHg 81%
    19:00 +16°C° 0.4 mm 1 mps 652 mmHg 84%
    20:00 +15°C° 0.4 mm 1 mps 652 mmHg 87%
    21:00 +14°C° 0.3 mm 1 mps 652 mmHg 87%
    22:00 +13°C° 0.3 mm 1 mps 652 mmHg 86%
    23:00 +13°C° 0.3 mm 1 mps 652 mmHg 86%
    Show more